Regional Weather Roundup
Issued by NWS Goodland, KS

Home | Current Version | Previous Version | Graphics & Text | Print | Product List | Glossary On
Versions: 1 2 3 4 5 6 7 8 9 10 11 12 13 14 15 16 17 18 19 20 21 22 23 24 25 26 27 28 29 30 31 32 33 34 35 36 37 38 39 40 41 42 43 44 45 46 47 48 49 50
000
ASUS43 KGLD 222208
RWRGLD

GOODLAND FORECAST AREA HOURLY WEATHER ROUNDUP
NATIONAL WEATHER SERVICE GOODLAND KS
400 PM MDT FRI AUG 22 2014

...OFFICIAL OBSERVATIONS...

CITY           SKY/WX    TMP DP  RH WIND       PRES   REMARKS
GOODLAND KS    PTSUNNY   87  63  44 E16G25    29.96F
HILL CITY KS   MOSUNNY   91  67  44 E10       29.91S
IMPERIAL NEB   CLOUDY    82  56  40 N8        30.02S
MCCOOK NEB     MOSUNNY   87  64  46 E13       29.95F
AKRON CO       MOSUNNY   74  56  53 E12       30.07F
BURLINGTON CO  TSTM      64  62  93 NE15G29   30.04R FOG
LIMON CO       CLOUDY    66  60  81 NE16      30.08F
$$

...UNOFFICIAL OBSERVATIONS...

CITY           SKY/WX    TMP DP  RH WIND       PRES   REMARKS
COLBY KS       PTSUNNY   81  68  65 E15       29.97S
LENORA KS        N/A     88  32  13 CALM        N/A
NORTON KS      MOSUNNY   88  66  48 N12       29.92S
SHARON SPRINGS   N/A     88  66  47 E17G24      N/A
WAKEENEY KS      N/A     93  62  35 MISG        N/A
KIT CARSON CO    N/A     76  65  70 MISG        N/A
YUMA CO          N/A     75  58  55 N14         N/A
$$


USA.gov is the U.S. government's official web portal to all federal, state and local government web resources and services.